SKY0034 LTFG-LTDA

Flight info

Callsign SKY0034
Flight time 1h 27m
Altitude 11000
Route 3617N03215E 3610N03218E 3600N03247E DCT 3612N03402E DCT 3617N03545E DCT 3605N03557E
Aircraft DC3/M-SDF/S

Departure

Time 2026-05-06 19:27
Airport Gazipaşa-Alanya Airport (LTFG)

Arrival

Time 2026-05-06 20:54
Airport Hatay Airport (LTDA)
Time Latitude Longitude Altitude Speed Heading
2026-05-06 19:16 36.29823 32.30113 105 ft 0 kts 83°
2026-05-06 19:19 36.29825 32.30133 106 ft 9 kts 79°
2026-05-06 19:20 36.29842 32.30214 109 ft 10 kts 76°
2026-05-06 19:20 36.29854 32.30300 111 ft 11 kts 82°
2026-05-06 19:20 36.29889 32.30362 111 ft 6 kts 355°
2026-05-06 19:20 36.29892 32.30362 111 ft 0 kts 353°
2026-05-06 19:21 36.29915 32.30360 111 ft 9 kts
2026-05-06 19:21 36.29995 32.30455 113 ft 23 kts 76°
2026-05-06 19:21 36.30005 32.30660 119 ft 25 kts 90°
2026-05-06 19:21 36.30044 32.30865 126 ft 22 kts 66°
2026-05-06 19:22 36.30080 32.30981 133 ft 8 kts 72°
2026-05-06 19:22 36.30098 32.31060 136 ft 11 kts 75°
2026-05-06 19:22 36.30072 32.31135 138 ft 7 kts 231°
2026-05-06 19:22 36.30069 32.31131 138 ft 0 kts 234°
2026-05-06 19:25 36.30052 32.31095 137 ft 11 kts 251°
2026-05-06 19:25 36.30046 32.31059 136 ft 1 kts 259°
2026-05-06 19:25 36.30045 32.31053 136 ft 1 kts 259°
2026-05-06 19:25 36.30034 32.30980 132 ft 29 kts 259°
2026-05-06 19:26 36.29983 32.30566 115 ft 67 kts 252°
2026-05-06 19:26 36.29890 32.29862 101 ft 95 kts 265°
2026-05-06 19:26 36.29720 32.28997 120 ft 107 kts 249°
2026-05-06 19:26 36.29509 32.28182 518 ft 96 kts 252°
2026-05-06 19:27 36.29237 32.27307 638 ft 118 kts 244°
2026-05-06 19:27 36.28809 32.26450 1014 ft 108 kts 229°
2026-05-06 19:27 36.28245 32.25966 1391 ft 99 kts 196°
2026-05-06 19:27 36.27528 32.25842 1584 ft 108 kts 179°
2026-05-06 19:28 36.26729 32.25942 1683 ft 126 kts 171°
2026-05-06 19:28 36.25936 32.26154 2100 ft 115 kts 166°
2026-05-06 19:28 36.25181 32.26444 2481 ft 106 kts 161°
2026-05-06 19:28 36.24487 32.26781 2716 ft 112 kts 162°
2026-05-06 19:29 36.23707 32.27053 2896 ft 123 kts 165°
2026-05-06 19:29 36.22858 32.27389 3088 ft 131 kts 160°
2026-05-06 19:29 36.21993 32.27793 3282 ft 134 kts 161°
2026-05-06 19:29 36.21094 32.28158 3480 ft 137 kts 163°
2026-05-06 19:30 36.20178 32.28517 3676 ft 139 kts 161°
2026-05-06 19:30 36.19260 32.28932 3875 ft 142 kts 159°
2026-05-06 19:30 36.18328 32.29354 4066 ft 144 kts 161°
2026-05-06 19:30 36.17371 32.29730 4276 ft 145 kts 163°
2026-05-06 19:31 36.16477 32.30300 4460 ft 145 kts 136°
2026-05-06 19:31 36.16003 32.31380 4656 ft 144 kts 102°
2026-05-06 19:31 36.15418 32.33768 4915 ft 155 kts 113°
2026-05-06 19:32 36.14939 32.34993 5027 ft 158 kts 114°
2026-05-06 19:32 36.14524 32.36225 5228 ft 156 kts 109°
2026-05-06 19:32 36.14153 32.37479 5425 ft 154 kts 109°
2026-05-06 19:32 36.13726 32.38689 5628 ft 153 kts 114°
2026-05-06 19:33 36.13275 32.39872 5820 ft 151 kts 112°
2026-05-06 19:33 36.12886 32.41068 6023 ft 149 kts 108°
2026-05-06 19:33 36.12511 32.42256 6225 ft 147 kts 111°
2026-05-06 19:33 36.12092 32.43404 6423 ft 145 kts 113°
2026-05-06 19:34 36.11681 32.44536 6620 ft 144 kts 110°
2026-05-06 19:34 36.11318 32.45675 6804 ft 141 kts 109°
2026-05-06 19:34 36.10944 32.46790 6996 ft 139 kts 111°
2026-05-06 19:34 36.10546 32.47865 7183 ft 136 kts 112°
2026-05-06 19:35 36.10180 32.48935 7381 ft 133 kts 109°
2026-05-06 19:35 36.09842 32.49975 7565 ft 130 kts 110°
2026-05-06 19:35 36.09487 32.50989 7769 ft 127 kts 111°
2026-05-06 19:35 36.09137 32.51976 7967 ft 124 kts 110°
2026-05-06 19:36 36.08813 32.52955 8093 ft 126 kts 109°
2026-05-06 19:36 36.08584 32.53641 8096 ft 135 kts 110°
2026-05-06 19:36 36.08044 32.55149 8094 ft 150 kts 112°
2026-05-06 19:36 36.07617 32.56363 8104 ft 158 kts 110°
2026-05-06 19:37 36.07195 32.57632 8105 ft 165 kts 110°
2026-05-06 19:37 36.06740 32.58974 8097 ft 173 kts 111°
2026-05-06 19:37 36.06249 32.60365 8105 ft 179 kts 112°
2026-05-06 19:37 36.05917 32.61305 8101 ft 181 kts 111°
2026-05-06 19:38 36.05418 32.62760 8094 ft 185 kts 110°
2026-05-06 19:38 36.04923 32.64236 8099 ft 187 kts 110°
2026-05-06 19:38 36.04405 32.65720 8097 ft 189 kts 112°
2026-05-06 19:38 36.03866 32.67214 8093 ft 190 kts 112°
2026-05-06 19:39 36.03335 32.68718 8096 ft 191 kts 111°
2026-05-06 19:39 36.02830 32.70237 8095 ft 192 kts 110°
2026-05-06 19:39 36.02321 32.71767 8094 ft 192 kts 111°
2026-05-06 19:39 36.01780 32.73286 8100 ft 193 kts 112°
2026-05-06 19:40 36.01229 32.74775 8089 ft 194 kts 112°
2026-05-06 19:40 36.00694 32.76305 8094 ft 194 kts 110°
2026-05-06 19:40 36.00199 32.77861 8095 ft 193 kts 108°
2026-05-06 19:40 35.99967 32.79474 8080 ft 190 kts 87°
2026-05-06 19:41 36.00281 32.81039 8082 ft 187 kts 64°
2026-05-06 19:41 36.00801 32.82502 8084 ft 186 kts 69°
2026-05-06 19:41 36.01058 32.84073 8078 ft 188 kts 82°
2026-05-06 19:41 36.01161 32.85680 8082 ft 188 kts 82°
2026-05-06 19:42 36.01400 32.87263 8080 ft 188 kts 73°
2026-05-06 19:42 36.01783 32.88804 8081 ft 187 kts 71°
2026-05-06 19:42 36.02082 32.90378 8083 ft 189 kts 79°
2026-05-06 19:42 36.02244 32.91990 8079 ft 189 kts 82°
2026-05-06 19:43 36.02444 32.93574 8084 ft 189 kts 76°
2026-05-06 19:43 36.02780 32.95142 8081 ft 188 kts 72°
2026-05-06 19:43 36.03113 32.96707 8083 ft 189 kts 76°
2026-05-06 19:43 36.03323 32.98309 8079 ft 189 kts 81°
2026-05-06 19:44 36.03500 32.99919 8078 ft 189 kts 79°
2026-05-06 19:44 36.03785 33.01507 8082 ft 189 kts 73°
2026-05-06 19:44 36.04127 33.03052 8085 ft 188 kts 74°
2026-05-06 19:44 36.04389 33.04639 8081 ft 189 kts 79°
2026-05-06 19:45 36.04565 33.06248 8085 ft 190 kts 80°
2026-05-06 19:45 36.04796 33.07856 8083 ft 189 kts 75°
2026-05-06 19:45 36.05129 33.09431 8083 ft 189 kts 73°
2026-05-06 19:45 36.05438 33.11010 8088 ft 189 kts 77°
2026-05-06 19:46 36.05643 33.12618 8082 ft 190 kts 81°
2026-05-06 19:46 36.05834 33.14230 8086 ft 189 kts 78°
2026-05-06 19:46 36.06124 33.15815 8088 ft 189 kts 73°
2026-05-06 19:46 36.06460 33.17382 8090 ft 189 kts 75°
2026-05-06 19:47 36.06711 33.18980 8088 ft 189 kts 79°
2026-05-06 19:47 36.06888 33.20577 8086 ft 189 kts 80°
2026-05-06 19:47 36.07128 33.22198 8082 ft 189 kts 75°
2026-05-06 19:47 36.07454 33.23751 8085 ft 189 kts 73°
2026-05-06 19:48 36.07756 33.25335 8085 ft 189 kts 77°
2026-05-06 19:48 36.07957 33.26950 8088 ft 190 kts 81°
2026-05-06 19:48 36.08151 33.28566 8087 ft 190 kts 78°
2026-05-06 19:48 36.08444 33.30157 8087 ft 190 kts 73°
2026-05-06 19:49 36.08776 33.31729 8083 ft 189 kts 75°
2026-05-06 19:49 36.09024 33.33335 8077 ft 190 kts 79°
2026-05-06 19:49 36.09199 33.34937 8080 ft 190 kts 80°
2026-05-06 19:49 36.09436 33.36540 8081 ft 189 kts 75°
2026-05-06 19:50 36.09764 33.38111 8080 ft 187 kts 73°
2026-05-06 19:50 36.10054 33.39672 8084 ft 186 kts 77°
2026-05-06 19:50 36.10245 33.41252 8081 ft 185 kts 80°
2026-05-06 19:50 36.10436 33.42819 8081 ft 184 kts 77°
2026-05-06 19:51 36.10723 33.44353 8082 ft 182 kts 73°
2026-05-06 19:51 36.11036 33.45874 8082 ft 182 kts 75°
2026-05-06 19:51 36.11260 33.47400 8080 ft 183 kts 79°
2026-05-06 19:51 36.11434 33.48959 8078 ft 182 kts 79°
2026-05-06 19:52 36.11675 33.50496 8078 ft 182 kts 75°
2026-05-06 19:52 36.11989 33.52008 8082 ft 181 kts 73°
2026-05-06 19:52 36.12258 33.53537 8093 ft 183 kts 77°
2026-05-06 19:52 36.12470 33.55095 8088 ft 183 kts 79°
2026-05-06 19:53 36.12667 33.56652 8086 ft 183 kts 78°
2026-05-06 19:53 36.12913 33.58193 8079 ft 182 kts 75°
2026-05-06 19:53 36.13207 33.59718 8084 ft 182 kts 75°
2026-05-06 19:53 36.13467 33.61251 8085 ft 182 kts 78°
2026-05-06 19:54 36.13662 33.62800 8080 ft 182 kts 79°
2026-05-06 19:54 36.13869 33.64342 8083 ft 182 kts 77°
2026-05-06 19:54 36.14149 33.65868 8084 ft 181 kts 74°
2026-05-06 19:54 36.14439 33.67383 8077 ft 181 kts 76°
2026-05-06 19:55 36.14642 33.68921 8078 ft 185 kts 80°
2026-05-06 19:55 36.14864 33.70497 8084 ft 186 kts 76°
2026-05-06 19:55 36.15145 33.72057 8081 ft 185 kts 75°
2026-05-06 19:55 36.15410 33.73609 8082 ft 184 kts 77°
2026-05-06 19:56 36.15617 33.75155 8083 ft 184 kts 79°
2026-05-06 19:56 36.15823 33.76738 8074 ft 183 kts 78°
2026-05-06 19:56 36.16088 33.78280 8077 ft 183 kts 75°
2026-05-06 19:56 36.16382 33.79811 8075 ft 183 kts 75°
2026-05-06 19:57 36.16618 33.81355 8075 ft 183 kts 79°
2026-05-06 19:57 36.16803 33.82908 8074 ft 183 kts 79°
2026-05-06 19:57 36.17024 33.84436 8076 ft 182 kts 76°
2026-05-06 19:57 36.17317 33.85963 8072 ft 181 kts 74°
2026-05-06 19:58 36.17592 33.87486 8074 ft 181 kts 77°
2026-05-06 19:58 36.17788 33.89035 8072 ft 182 kts 80°
2026-05-06 19:58 36.17976 33.90580 8075 ft 182 kts 78°
2026-05-06 19:58 36.18242 33.92105 8069 ft 181 kts 74°
2026-05-06 19:59 36.18540 33.93620 8076 ft 181 kts 75°
2026-05-06 19:59 36.18770 33.95157 8075 ft 182 kts 79°
2026-05-06 19:59 36.18945 33.96714 8072 ft 182 kts 79°
2026-05-06 19:59 36.19170 33.98253 8076 ft 182 kts 75°
2026-05-06 20:00 36.19468 33.99771 8073 ft 182 kts 74°
2026-05-06 20:00 36.19737 34.01299 8073 ft 182 kts 77°
2026-05-06 20:00 36.19924 34.02846 8073 ft 182 kts 80°
2026-05-06 20:00 36.20056 34.04408 8080 ft 182 kts 84°
2026-05-06 20:01 36.20122 34.05951 8075 ft 182 kts 85°
2026-05-06 20:01 36.20209 34.07513 8079 ft 182 kts 83°
2026-05-06 20:01 36.20333 34.09074 8082 ft 182 kts 82°
2026-05-06 20:01 36.20438 34.10638 8081 ft 182 kts 84°
2026-05-06 20:02 36.20489 34.12207 8082 ft 183 kts 86°
2026-05-06 20:02 36.20540 34.13780 8081 ft 182 kts 84°
2026-05-06 20:02 36.20653 34.15343 8083 ft 182 kts 81°
2026-05-06 20:02 36.20787 34.16908 8078 ft 183 kts 82°
2026-05-06 20:03 36.20861 34.18481 8080 ft 183 kts 85°
2026-05-06 20:03 36.20891 34.20059 8085 ft 183 kts 86°
2026-05-06 20:03 36.20966 34.21615 8080 ft 183 kts 82°
2026-05-06 20:03 36.21106 34.23179 8077 ft 183 kts 81°
2026-05-06 20:04 36.21220 34.24750 8085 ft 183 kts 84°
2026-05-06 20:04 36.21258 34.26327 8087 ft 183 kts 86°
2026-05-06 20:04 36.21300 34.27905 8085 ft 183 kts 84°
2026-05-06 20:04 36.21418 34.29464 8085 ft 182 kts 81°
2026-05-06 20:05 36.21554 34.31025 8083 ft 182 kts 83°
2026-05-06 20:05 36.21620 34.32592 8085 ft 183 kts 86°
2026-05-06 20:05 36.21644 34.34168 8085 ft 183 kts 85°
2026-05-06 20:05 36.21725 34.35742 8085 ft 183 kts 82°
2026-05-06 20:06 36.21871 34.37306 8087 ft 182 kts 81°
2026-05-06 20:06 36.21973 34.38854 8085 ft 183 kts 85°
2026-05-06 20:06 36.21998 34.40430 8086 ft 183 kts 87°
2026-05-06 20:06 36.22040 34.42005 8082 ft 183 kts 83°
2026-05-06 20:07 36.22170 34.43570 8081 ft 182 kts 80°
2026-05-06 20:07 36.22308 34.45134 8088 ft 183 kts 83°
2026-05-06 20:07 36.22358 34.46709 8087 ft 183 kts 87°
2026-05-06 20:07 36.22375 34.48284 8087 ft 183 kts 85°
2026-05-06 20:08 36.22469 34.49853 8085 ft 182 kts 81°
2026-05-06 20:08 36.22618 34.51407 8082 ft 182 kts 81°
2026-05-06 20:08 36.22706 34.52972 8085 ft 183 kts 85°
2026-05-06 20:08 36.22722 34.54548 8087 ft 183 kts 87°
2026-05-06 20:09 36.22774 34.56120 8078 ft 182 kts 83°
2026-05-06 20:09 36.22910 34.57659 8086 ft 182 kts 81°
2026-05-06 20:09 36.23035 34.59217 8089 ft 182 kts 84°
2026-05-06 20:09 36.23074 34.60792 8088 ft 183 kts 87°
2026-05-06 20:10 36.23096 34.62368 8090 ft 183 kts 85°
2026-05-06 20:10 36.23200 34.63937 8086 ft 183 kts 81°
2026-05-06 20:10 36.23344 34.65501 8085 ft 182 kts 82°
2026-05-06 20:10 36.23417 34.67074 8087 ft 183 kts 86°
2026-05-06 20:11 36.23431 34.68657 8090 ft 183 kts 87°
2026-05-06 20:11 36.23497 34.70231 8087 ft 183 kts 83°
2026-05-06 20:11 36.23636 34.71795 8087 ft 183 kts 81°
2026-05-06 20:11 36.23745 34.73362 8090 ft 183 kts 85°
2026-05-06 20:12 36.23772 34.74919 8089 ft 183 kts 88°
2026-05-06 20:12 36.23801 34.76493 8089 ft 183 kts 85°
2026-05-06 20:12 36.23916 34.78060 8086 ft 182 kts 81°
2026-05-06 20:12 36.24054 34.79623 8088 ft 182 kts 83°
2026-05-06 20:13 36.24116 34.81197 8085 ft 183 kts 87°
2026-05-06 20:13 36.24128 34.82778 8089 ft 183 kts 87°
2026-05-06 20:13 36.24197 34.84346 8089 ft 183 kts 83°
2026-05-06 20:13 36.24338 34.85918 8087 ft 183 kts 82°
2026-05-06 20:14 36.24442 34.87482 8087 ft 183 kts 85°
2026-05-06 20:14 36.24463 34.89063 8086 ft 183 kts 88°
2026-05-06 20:14 36.24495 34.90639 8081 ft 183 kts 84°
2026-05-06 20:14 36.24612 34.92204 8082 ft 182 kts 81°
2026-05-06 20:15 36.24744 34.93748 8079 ft 182 kts 83°
2026-05-06 20:15 36.24796 34.95322 8084 ft 183 kts 88°
2026-05-06 20:15 36.24806 34.96904 8084 ft 183 kts 87°
2026-05-06 20:15 36.24885 34.98478 8085 ft 183 kts 82°
2026-05-06 20:16 36.25030 35.00041 8084 ft 182 kts 82°
2026-05-06 20:16 36.25119 35.01609 8081 ft 183 kts 86°
2026-05-06 20:16 36.25127 35.03190 8081 ft 183 kts 88°
2026-05-06 20:16 36.25165 35.04747 8080 ft 183 kts 84°
2026-05-06 20:17 36.25295 35.06302 8078 ft 180 kts 81°
2026-05-06 20:17 36.25410 35.07829 8076 ft 177 kts 84°
2026-05-06 20:17 36.25438 35.09344 8072 ft 174 kts 88°
2026-05-06 20:17 36.25455 35.10833 8075 ft 172 kts 85°
2026-05-06 20:18 36.25552 35.12297 8074 ft 169 kts 82°
2026-05-06 20:18 36.25675 35.13743 8075 ft 168 kts 83°
2026-05-06 20:18 36.25727 35.15191 8073 ft 168 kts 87°
2026-05-06 20:18 36.25743 35.16637 8075 ft 167 kts 86°
2026-05-06 20:19 36.25815 35.18070 8074 ft 166 kts 83°
2026-05-06 20:19 36.25927 35.19478 8071 ft 166 kts 83°
2026-05-06 20:19 36.25993 35.20906 8076 ft 166 kts 86°
2026-05-06 20:19 36.26014 35.22336 8075 ft 166 kts 87°
2026-05-06 20:20 36.26074 35.23762 8072 ft 165 kts 83°
2026-05-06 20:20 36.26183 35.25177 8073 ft 165 kts 83°
2026-05-06 20:20 36.26256 35.26595 8073 ft 164 kts 86°
2026-05-06 20:20 36.26277 35.27998 8074 ft 162 kts 87°
2026-05-06 20:21 36.26329 35.29378 8072 ft 159 kts 83°
2026-05-06 20:21 36.26435 35.30733 8072 ft 157 kts 83°
2026-05-06 20:21 36.26506 35.32079 8073 ft 156 kts 86°
2026-05-06 20:21 36.26532 35.33426 8070 ft 156 kts 86°
2026-05-06 20:22 36.26586 35.34763 8071 ft 155 kts 84°
2026-05-06 20:22 36.26678 35.36089 8074 ft 154 kts 84°
2026-05-06 20:22 36.26736 35.37411 8075 ft 154 kts 86°
2026-05-06 20:22 36.26763 35.38717 8074 ft 153 kts 86°
2026-05-06 20:23 36.26827 35.40031 8074 ft 153 kts 84°
2026-05-06 20:23 36.26913 35.41344 8072 ft 152 kts 84°
2026-05-06 20:23 36.26962 35.42655 8073 ft 153 kts 86°
2026-05-06 20:23 36.26997 35.43971 8070 ft 153 kts 85°
2026-05-06 20:24 36.27065 35.45282 8071 ft 152 kts 84°
2026-05-06 20:24 36.27119 35.46143 8075 ft 152 kts 84°
2026-05-06 20:24 36.27177 35.47457 8072 ft 152 kts 86°
2026-05-06 20:24 36.27211 35.48768 8071 ft 152 kts 86°
2026-05-06 20:25 36.27269 35.50072 8075 ft 152 kts 84°
2026-05-06 20:25 36.27349 35.51374 8074 ft 151 kts 84°
2026-05-06 20:25 36.27401 35.52682 8077 ft 152 kts 86°
2026-05-06 20:25 36.27437 35.54021 8088 ft 160 kts 86°
2026-05-06 20:26 36.27513 35.55433 8088 ft 168 kts 84°
2026-05-06 20:26 36.27607 35.56888 8090 ft 174 kts 85°
2026-05-06 20:26 36.27664 35.58431 8086 ft 180 kts 87°
2026-05-06 20:26 36.27693 35.59975 8086 ft 183 kts 87°
2026-05-06 20:27 36.27750 35.61582 7979 ft 192 kts 85°
2026-05-06 20:27 36.27857 35.63266 7793 ft 201 kts 84°
2026-05-06 20:27 36.27959 35.65024 7601 ft 204 kts 86°
2026-05-06 20:27 36.27995 35.66784 7405 ft 204 kts 89°
2026-05-06 20:28 36.28004 35.68544 7206 ft 204 kts 88°
2026-05-06 20:28 36.28081 35.70295 7011 ft 203 kts 84°
2026-05-06 20:28 36.28227 35.72042 6818 ft 203 kts 83°
2026-05-06 20:28 36.28327 35.73791 6623 ft 203 kts 89°
2026-05-06 20:29 36.28095 35.75491 6414 ft 204 kts 109°
2026-05-06 20:29 36.27345 35.76971 6201 ft 205 kts 134°
2026-05-06 20:29 36.26159 35.77941 5987 ft 205 kts 158°
2026-05-06 20:29 36.24805 35.78478 5785 ft 203 kts 162°
2026-05-06 20:30 36.23549 35.79285 5575 ft 205 kts 144°
2026-05-06 20:30 36.21667 35.81919 5166 ft 204 kts 135°
2026-05-06 20:30 36.20555 35.82983 4965 ft 205 kts 148°
2026-05-06 20:31 36.19331 35.83887 4769 ft 205 kts 149°
2026-05-06 20:31 36.18182 35.84936 4559 ft 206 kts 140°
2026-05-06 20:31 36.17150 35.86169 4358 ft 207 kts 135°
2026-05-06 20:31 36.16106 35.87408 4149 ft 207 kts 140°
2026-05-06 20:32 36.14967 35.88458 4086 ft 199 kts 148°
2026-05-06 20:32 36.13833 35.89371 4081 ft 192 kts 146°
2026-05-06 20:32 36.12806 35.90397 4075 ft 192 kts 138°
2026-05-06 20:32 36.11855 35.91555 4075 ft 191 kts 136°
2026-05-06 20:33 36.10843 35.92633 4076 ft 191 kts 144°
2026-05-06 20:33 36.09796 35.93621 4096 ft 191 kts 140°
2026-05-06 20:33 36.08940 35.94923 4063 ft 199 kts 118°
2026-05-06 20:33 36.08646 35.96564 4078 ft 197 kts 88°
2026-05-06 20:34 36.08984 35.98201 4078 ft 198 kts 63°
2026-05-06 20:34 36.09816 35.99509 4080 ft 194 kts 39°
2026-05-06 20:34 36.10931 36.00415 4094 ft 192 kts 29°
2026-05-06 20:34 36.12036 36.01359 4087 ft 197 kts 39°
2026-05-06 20:35 36.13002 36.02585 4090 ft 200 kts 47°
2026-05-06 20:35 36.13893 36.03865 4074 ft 193 kts 46°
2026-05-06 20:35 36.14872 36.04934 4077 ft 186 kts 35°
2026-05-06 20:35 36.15904 36.05869 4083 ft 181 kts 37°
2026-05-06 20:36 36.16831 36.06913 4089 ft 180 kts 42°
2026-05-06 20:36 36.17722 36.07998 4095 ft 178 kts 43°
2026-05-06 20:36 36.18605 36.09077 4096 ft 178 kts 44°
2026-05-06 20:36 36.19485 36.10131 3962 ft 180 kts 41°
2026-05-06 20:37 36.20454 36.11149 3820 ft 184 kts 37°
2026-05-06 20:37 36.21455 36.12153 3679 ft 186 kts 37°
2026-05-06 20:37 36.22461 36.13189 3534 ft 189 kts 40°
2026-05-06 20:37 36.23407 36.14331 3396 ft 190 kts 45°
2026-05-06 20:38 36.24304 36.15522 3245 ft 193 kts 44°
2026-05-06 20:38 36.25292 36.16684 3089 ft 195 kts 39°
2026-05-06 20:38 36.26339 36.17707 3104 ft 189 kts 35°
2026-05-06 20:38 36.27354 36.18726 3107 ft 187 kts 39°
2026-05-06 20:39 36.28303 36.19849 3104 ft 191 kts 44°
2026-05-06 20:39 36.29254 36.21029 3112 ft 195 kts 41°
2026-05-06 20:39 36.30308 36.22109 3119 ft 196 kts 36°
2026-05-06 20:39 36.31346 36.23217 3089 ft 196 kts 43°
2026-05-06 20:40 36.32300 36.24432 3095 ft 198 kts 42°
2026-05-06 20:40 36.33280 36.25603 3102 ft 200 kts 42°
2026-05-06 20:40 36.34289 36.26803 3096 ft 200 kts 43°
2026-05-06 20:40 36.35312 36.27940 3092 ft 194 kts 34°
2026-05-06 20:41 36.36392 36.28880 3093 ft 185 kts 34°
2026-05-06 20:41 36.37442 36.29768 3100 ft 180 kts 31°
2026-05-06 20:41 36.38523 36.30574 3108 ft 184 kts 27°
2026-05-06 20:41 36.39692 36.31285 3102 ft 187 kts 22°
2026-05-06 20:42 36.40888 36.31940 3117 ft 188 kts 23°
2026-05-06 20:42 36.42041 36.32725 3102 ft 192 kts 30°
2026-05-06 20:42 36.43185 36.33582 3103 ft 193 kts 28°
2026-05-06 20:42 36.44363 36.34403 3094 ft 195 kts 27°
2026-05-06 20:43 36.45556 36.35190 3092 ft 195 kts 26°
2026-05-06 20:43 36.46771 36.35919 3099 ft 192 kts 24°
2026-05-06 20:43 36.47957 36.36609 3078 ft 184 kts 24°
2026-05-06 20:43 36.49064 36.37338 3100 ft 177 kts 30°
2026-05-06 20:44 36.50098 36.38140 3087 ft 174 kts 30°
2026-05-06 20:44 36.51155 36.38872 3092 ft 173 kts 26°
2026-05-06 20:44 36.52219 36.39505 3096 ft 171 kts 23°
2026-05-06 20:44 36.53281 36.40189 3079 ft 172 kts 28°
2026-05-06 20:45 36.54326 36.40917 3091 ft 172 kts 28°
2026-05-06 20:45 36.55377 36.41620 3092 ft 172 kts 26°
2026-05-06 20:45 36.56434 36.42315 3086 ft 171 kts 27°
2026-05-06 20:45 36.57459 36.43059 3089 ft 169 kts 35°
2026-05-06 20:46 36.58260 36.44124 3097 ft 170 kts 57°
2026-05-06 20:46 36.58627 36.45512 3080 ft 172 kts 84°
2026-05-06 20:46 36.58425 36.46917 3082 ft 163 kts 116°
2026-05-06 20:46 36.57734 36.47984 3068 ft 156 kts 146°
2026-05-06 20:47 36.56745 36.48421 3085 ft 150 kts 170°
2026-05-06 20:47 36.55685 36.48467 2909 ft 154 kts 189°
2026-05-06 20:47 36.54647 36.48090 2770 ft 159 kts 206°
2026-05-06 20:47 36.53769 36.47224 2613 ft 163 kts 230°
2026-05-06 20:48 36.53013 36.46156 2481 ft 167 kts 226°
2026-05-06 20:48 36.52119 36.45236 2326 ft 170 kts 217°
2026-05-06 20:48 36.51139 36.44421 2189 ft 168 kts 214°
2026-05-06 20:48 36.50209 36.43567 2026 ft 164 kts 221°
2026-05-06 20:49 36.49405 36.42591 1887 ft 156 kts 228°
2026-05-06 20:49 36.48661 36.41701 1885 ft 143 kts 220°
2026-05-06 20:49 36.47904 36.41013 1885 ft 125 kts 217°
2026-05-06 20:49 36.47260 36.40368 1886 ft 111 kts 223°
2026-05-06 20:50 36.46689 36.39799 1904 ft 108 kts 219°
2026-05-06 20:50 36.46087 36.39199 1816 ft 117 kts 221°
2026-05-06 20:50 36.45485 36.38613 2034 ft 105 kts 217°
2026-05-06 20:50 36.44891 36.38111 2208 ft 103 kts 214°
2026-05-06 20:51 36.44267 36.37626 2315 ft 108 kts 217°
2026-05-06 20:51 36.43652 36.37035 2370 ft 115 kts 221°
2026-05-06 20:51 36.42973 36.36435 2333 ft 126 kts 217°
2026-05-06 20:51 36.42248 36.35747 2197 ft 133 kts 221°
2026-05-06 20:52 36.41562 36.34978 2115 ft 133 kts 226°
2026-05-06 20:52 36.40908 36.34218 1780 ft 126 kts 227°
2026-05-06 20:52 36.40333 36.33509 1581 ft 110 kts 224°
2026-05-06 20:52 36.39787 36.32912 1480 ft 101 kts 223°
2026-05-06 20:53 36.39251 36.32328 1227 ft 103 kts 223°
2026-05-06 20:53 36.38751 36.31746 1047 ft 96 kts 224°
2026-05-06 20:53 36.38290 36.31162 831 ft 94 kts 225°
2026-05-06 20:53 36.37817 36.30611 594 ft 91 kts 222°
2026-05-06 20:54 36.37386 36.30090 382 ft 79 kts 222°
2026-05-06 20:54 36.37024 36.29671 278 ft 63 kts 223°
2026-05-06 20:54 36.36754 36.29354 271 ft 45 kts 224°
2026-05-06 20:54 36.36565 36.29134 272 ft 31 kts 222°
2026-05-06 20:55 36.36425 36.28978 272 ft 26 kts 221°
2026-05-06 20:55 36.36306 36.28842 272 ft 21 kts 226°
2026-05-06 20:55 36.36214 36.28728 271 ft 17 kts 222°
2026-05-06 20:55 36.36125 36.28623 270 ft 20 kts 234°
2026-05-06 20:56 36.36110 36.28459 270 ft 21 kts 308°
2026-05-06 20:56 36.36192 36.28337 269 ft 16 kts 306°
2026-05-06 20:56 36.36202 36.28242 269 ft 9 kts 224°
2026-05-06 20:56 36.36186 36.28224 269 ft 0 kts 220°